Weather History for Davenport, IA

Change the Weather History Date:

Wednesday, November 2, 2011

  Actual Average Record
Temperature  
Mean Temperature 52 °F 45 °F  
Max Temperature 64 °F 55 °F 75 °F (1961)
Min Temperature 39 °F 35 °F 15 °F (1951)
Degree Days  
Heating Degree Days 13 20  
Month to date heating degree days 23 39  
Since 1 July heating degree days 586 599  
Cooling Degree Days 0 0  
Month to date cooling degree days 0 0  
Year to date cooling degree days 1020 786  
Growing Degree Days 2 (Base 50)    
Moisture  
Dew Point 39 °F    
Average Humidity 62    
Maximum Humidity 86    
Minimum Humidity 37    
Precipitation  
Precipitation 0.89 in 0.11 in 1.03 in (1967)
Month to date precipitation 0.89 0.23  
Year to date precipitation 27.85 32.08  
Snow  
Snow 0.00 in - - ()
Month to date snowfall 0.0  
Since 1 July snowfall 0.0  
Since 1 September snowfall 0.0  
Snow Depth 0.00 in    
Sea Level Pressure  
Sea Level Pressure 30.02 in    
Wind  
Wind Speed 16 mph (NNE)    
Max Wind Speed 28 mph    
Max Gust Speed 36 mph    
Visibility 7 miles    
Events Rain    
T = Trace of Precipitation, MM = Missing Value Source: NWS Daily Summary

Daily Weather History Graph

Daily Weather History Graph

Search for Another Location

Airport:

Trip Planner

Search our weather history database for the weather conditions in past years. The results will help you decide how hot, cold, wet, or windy it might be!

Date:

Astronomy

Nov. 02, 2011 Rise Set
Actual Time 7:35 AM CDT 5:56 PM CDT
Civil Twilight 7:06 AM CDT 6:24 PM CDT
Nautical Twilight 6:33 AM CDT 6:57 PM CDT
Astronomical Twilight 6:01 AM CDT 7:30 PM CDT
Moon 1:54 PM CDT (11/2) No Moon Set
Length of Visible Light 11h 18m
Length of Day
10h 20m
Waxing Crescent, 50% of the Moon is Illuminated
Nov 2
Waxing Crescent
Nov 10
Full
Nov 18
Last Quarter
Nov 25
New
Dec 2
First Quarter

Hourly Weather History & Observations

Time (CDT) Temp. Windchill Dew Point Humidity Pressure Visibility Wind Dir Wind Speed Gust Speed Precip Events Conditions
12:52 AM 57.9 °F - 35.1 °F 42% 29.97 in 10.0 mi South 17.3 mph - N/A   Clear
1:52 AM 57.9 °F - 35.1 °F 42% 29.99 in 10.0 mi South 19.6 mph 25.3 mph N/A   Scattered Clouds
2:52 AM 59.0 °F - 34.0 °F 39% 29.98 in 10.0 mi South 17.3 mph 26.5 mph N/A   Mostly Cloudy
3:52 AM 59.0 °F - 35.1 °F 41% 29.98 in 10.0 mi South 15.0 mph 26.5 mph N/A   Overcast
4:52 AM 57.9 °F - 35.1 °F 42% 29.99 in 10.0 mi South 17.3 mph 21.9 mph N/A   Overcast
5:52 AM 57.0 °F - 36.0 °F 45% 29.99 in 10.0 mi South 16.1 mph - N/A   Overcast
6:52 AM 57.0 °F - 36.0 °F 45% 29.99 in 10.0 mi South 12.7 mph - N/A   Overcast
7:52 AM 57.0 °F - 36.0 °F 45% 30.01 in 10.0 mi South 12.7 mph - N/A   Overcast
8:52 AM 57.0 °F - 37.0 °F 47% 30.01 in 10.0 mi SSW 10.4 mph - N/A   Overcast
9:52 AM 57.0 °F - 37.9 °F 49% 30.03 in 10.0 mi South 9.2 mph - N/A   Overcast
10:52 AM 57.9 °F - 37.9 °F 47% 30.01 in 10.0 mi SSW 11.5 mph - N/A   Overcast
11:52 AM 61.0 °F - 41.0 °F 48% 30.01 in 10.0 mi SSW 11.5 mph - 0.00 in   Overcast
12:52 PM 64.0 °F - 39.9 °F 41% 29.98 in 10.0 mi SSW 11.5 mph - N/A   Scattered Clouds
1:52 PM 60.1 °F - 39.9 °F 47% 29.94 in 10.0 mi South 6.9 mph - N/A   Overcast
2:48 PM 55.4 °F - 44.6 °F 67% 29.96 in 7.0 mi NNW 13.8 mph - 0.00 in Rain Light Rain
2:52 PM 54.0 °F - 44.1 °F 69% 29.96 in 7.0 mi NNW 11.5 mph - 0.00 in Rain Light Rain
3:52 PM 50.0 °F - 45.0 °F 83% 30.01 in 6.0 mi NNW 12.7 mph - 0.00 in Rain Light Rain
4:23 PM 48.2 °F - 44.6 °F 87% 30.01 in 2.0 mi North 13.8 mph - N/A Rain Rain
4:38 PM 48.2 °F - 44.6 °F 87% 30.00 in 3.0 mi North 12.7 mph - N/A Rain Light Rain
4:52 PM 48.9 °F - 45.0 °F 86% 30.02 in 3.0 mi NNE 15.0 mph - N/A Rain Rain
4:59 PM 48.2 °F - 44.6 °F 87% 30.02 in 2.0 mi NNE 16.1 mph - N/A Rain Rain
5:01 PM 48.2 °F - 44.6 °F 87% 30.02 in 1.8 mi NNE 13.8 mph - N/A Rain Rain
5:10 PM 48.2 °F - 44.6 °F 87% 30.01 in 3.0 mi NNE 13.8 mph 20.7 mph N/A Rain Light Rain
5:27 PM 48.2 °F - 44.6 °F 87% 30.01 in 2.0 mi NE 17.3 mph - N/A Rain Rain
5:42 PM 48.2 °F - 44.6 °F 87% 30.01 in 4.0 mi NNE 16.1 mph 21.9 mph N/A Rain Rain
5:52 PM 48.0 °F - 44.1 °F 86% 30.02 in 4.0 mi NNE 17.3 mph 23.0 mph N/A Rain Rain
6:52 PM 46.0 °F 37.8 °F 42.1 °F 86% 30.05 in 8.0 mi NNE 23.0 mph 28.8 mph N/A Rain Light Rain
7:52 PM 42.1 °F 32.3 °F 37.9 °F 85% 30.05 in 7.0 mi North 24.2 mph 32.2 mph N/A Rain Light Rain
8:28 PM 41.0 °F 30.9 °F 37.4 °F 87% 30.02 in 10.0 mi NNE 24.2 mph 35.7 mph 0.00 in   Overcast
8:52 PM 39.9 °F 29.5 °F 36.0 °F 86% 30.03 in 7.0 mi NNE 24.2 mph 34.5 mph 0.00 in Rain Light Rain
9:52 PM 39.0 °F 28.8 °F 36.0 °F 89% 30.06 in 4.0 mi NNE 21.9 mph - N/A Rain Rain
9:57 PM 39.2 °F 28.5 °F 35.6 °F 87% 30.05 in 4.0 mi NNE 24.2 mph 32.2 mph N/A Rain Heavy Rain
10:36 PM 39.2 °F 29.6 °F 35.6 °F 87% 30.08 in 3.0 mi NNE 19.6 mph - N/A Rain Rain
10:49 PM 39.2 °F 30.2 °F 35.6 °F 87% 30.08 in 4.0 mi NNE 17.3 mph - N/A Rain Rain
10:52 PM 39.0 °F 29.6 °F 36.0 °F 89% 30.09 in 4.0 mi NNE 18.4 mph 26.5 mph N/A Rain Rain
11:16 PM 39.2 °F 29.6 °F 35.6 °F 87% 30.08 in 4.0 mi NNE 19.6 mph 27.6 mph N/A Rain Rain
11:52 PM 39.0 °F 30.3 °F 35.1 °F 86% 30.08 in 6.0 mi NNE 16.1 mph - N/A Rain Light Rain